Regional Weather Roundup
Issued by NWS Midland/Odessa, TX

Skip options and go directly to product.
Home | Oldest Version | Previous Version | Current Version | All | Graphics & Text | Save Text | Print | Product List | Glossary On

Skip product version selection by date and time.   
956
ASUS44 KMAF 242310
RWRMAF
MIDLAND AREA WEATHER ROUNDUP
NATIONAL WEATHER SERVICE MIDLAND TX
500 PM CST TUE JAN 24 2017

...IN SOUTHWEST TEXAS AND SOUTHEAST NEW MEXICO...

CITY           SKY/WX    TMP DP  RH WIND       PRES   REMARKS
ALPINE         SUNNY     70  23  17 W13       29.79R
ANDREWS        FAIR      62  28  27 W21G30    29.69R
ARTESIA        SUNNY     57  12  17 W26G39    29.71S
BIG SPRING     SUNNY     68  31  24 W21G28    29.69R
CARLSBAD       SUNNY     59  23  25 W28G43    29.70R
DRYDEN           N/A     88  20   8 SW24G33   29.58S
FORT STOCKTON  MOSUNNY   68  31  25 NW22G29   29.69R
GUAD PASS      SUNNY     48  25  40 W39G56    29.75S WCI  38
HOBBS          SUNNY     57  18  21 SW28G44   29.71R
MARFA          MOSUNNY   63  27  25 NW18G24   29.77R
MIDLAND AIRPK  SUNNY     68  29  23 NW17G26   29.69R
MIDLAND INTL   SUNNY     69  29  22 NW18      29.67R
ODESSA         SUNNY     67  29  24 NW17G24   29.69R
PECOS          SUNNY     66  31  27 W23       29.70R
PRESIDIO       FAIR      82  23  11 SW24G31   29.64R
SEMINOLE       SUNNY     60  22  22 W24G36    29.72R
SNYDER         CLOUDY    67  31  26 W24G31    29.66S HAZE
WINK           SUNNY     64  28  25 W30G37    29.69R
$$
...OTHER STATIONS IN TEXAS...

CITY           SKY/WX    TMP DP  RH WIND       PRES   REMARKS
ABILENE        SUNNY     73  34  23 NW15      29.62R
AMARILLO       SUNNY     53  10  18 W30G47    29.62R
AUSTIN         MOSUNNY   83  54  36 S15G25    29.61F
BROWNSVILLE    SUNNY     78  67  68 S29G35    29.66S
CORPUS CHRISTI PTSUNNY   78  65  63 SE28G33   29.64S
DALLAS FTW     CLOUDY    78  54  43 S10       29.55S
DEL RIO        NOT AVBL
EL PASO        MOSUNNY   52  22  30 W21G32    29.81R
HOUSTON INT    CLOUDY    76  62  62 S14       29.73R
LUBBOCK        MOSUNNY   62  15  16 W25G38    29.64R
SAN ANGELO     SUNNY     80  34  19 NW15      29.60R
SAN ANTONIO    PTSUNNY   81  52  36 S9        29.64S
WACO           PTCLDY    74  56  53 S14       29.59S
WICHITA FALLS  NOT AVBL
$$
...OTHER LOCATIONS IN NEW MEXICO...

CITY           SKY/WX    TMP DP  RH WIND       PRES   REMARKS
ALAMAGORDO     SUNNY     50  12  22 W22G32    29.83R
ALBUQUERQUE    MOSUNNY   40  13  33 W30G39    29.77R WCI  28
CANNON AFB     SUNNY     52  10  19 W28G36    29.67R
CLOVIS         SUNNY     52  16  24 W31       29.67R
HOLLOMAN AFB   SUNNY     50  15  25 SW20      29.85R
ROSWELL        SUNNY     58   7  13 W28G35    29.71R
RUIDOSO        SUNNY     39   1  20 W23G31    29.76R WCI  29
SANTA FE       MOSUNNY   32  13  45 W21G31    29.72R WCI  20
TRUTH OR CONSE SUNNY     46  14  27 W21G26    29.81R WCI  38
TUCUMCARI        N/A     50   8  18 W37G46    29.65R
$$